Location:  
MeteoStar


Sort by weather type Sort by elevation Sort by visibility Sort from west to east north Sort from north to south Alphabetically Sort from strongest wind speed Sort from lowest to highest pressure Sort from highest to lowest dew point temperature Sort coolest temperatures to warmest Sort warm temperatures to coolest
 Metric

Current Observations for United Kingdom sorted by weather type

Camborne18:00ZClear62 N/A0.061014.9N 6 285
Kinloss18:00ZShowers60 5831016.7WNW 3 6022
Lossiemouth18:00ZLight Showers61 5871017WSW 6 6142
Aviemore18:00ZHeavy Rain67 6271016.7ENE 2 67721
Inverness / Dalcross18:20ZThunder61 5941017.1N 2 6129
Charterhall18:00ZMist63 6341016.7ENE 2 63367
Wick18:00ZMist58 5761017.5ESE 7 58127
Cardinham18:00ZHaze67 6451013.7NNW 11 67656
Shoeburyness18:00ZHaze76 6751013.7E 8 766
Holbeach18:00ZHaze71 6561014NE 13 719
Boulmer18:00ZHaze63 6141016.9NNE 6 6375
Aberdeen / Dyce18:00ZHaze62 5941017.9SE 6 62213
Lerwick18:00ZCloudy60 58141021.2SE 12 60269
Glasgow Airport18:20ZCloudy70 6341016.1E 9 7026
Guernsey Airport18:00ZCloudy73 6371012.9NE 7 73334
Fair Isle18:00ZMostly Cloudy59 5681019.7ESE 12 59187
Isle Of Man / Ronaldsway Airport18:00ZMostly Cloudy70 64111015.5W 4 7055
Liverpool Airport 18:20ZMostly Cloudy77 6651014.1WNW 8 7785
Yeovilton18:00ZMostly Cloudy83 6871012.9NW 7 8675
Brize Norton18:00ZPartly Cloudy91 58201012S 2 90288
Prestwick Airport18:20ZPartly Cloudy68 6321016.1WSW 5 6865
Edinburgh Airport18:20ZPartly Cloudy63 6121017.1NE 5 63134
Spadeadam18:00ZClear69 6771015.7NE 6 69935
Inverbervie18:00ZClear60 590.371017.9ENE 9 60439
Marham18:00ZClear85 6591013.5E 5 8675
Waddington18:00ZClear82 63121013.9E 10 83223
Coningsby Royal Air Force Base18:00ZClear81 64121014E 8 8222
Northolt18:00ZClear90 61151012.5E 8 90124
Middle Wallop18:00ZClear88 60151012.7S 6 88298
Odiham18:00ZClear88 60201012.7S 8 88403
Wattisham18:00ZClear87 61151013.2SSE 5 86285
Aberporth18:00ZClear62 620.121015.2W 2 62436
Exeter Airport18:20ZClear82 6671013.0S 5 8498
Stansted Airport18:20ZClear86 6371013.8SE 7 87347
Leuchars18:00ZClear61 5971017.5E 5 6139
Tain Range18:00ZClear59 5841017.0NE 3 5913
Dundee / Riverside18:20ZClear63 5921017.1E 5 6313
Sumburgh Cape 18:20ZClear61 5781020.1ESE 16 6116
Lydd Airport 18:20ZClear75 66141013.1E 11 759
London City Airport18:20ZClear86 64201013.1E 9 8716
Luton Airport 18:20ZClear86 5751013.7E 4 85524
Bristol / Lulsgate 18:20ZClear77 6671013.7W 4 77620
Cardiff-Wales Airport18:20ZClear72 6671014.0W 7 72219
Manchester Airport18:20ZClear82 64161014.0W 3 84226
Eglinton / Londonderr18:20ZClear66 61161016.1NE 8 6629
Belfast / Harbour18:20ZClear68 63161016.1NE 7 6816

Atlantic
Tropical Watch